RSC764 GCTS-GCLA

Flight info

Callsign RSC764
Flight time 0h 38m
Altitude 11000
Route MOROD
Aircraft AT76/M-SDFGRY/LB1

Departure

Time 2026-04-22 12:53
Airport Tenerife Sur Airport (GCTS)

Arrival

Time 2026-04-22 13:31
Airport La Palma Airport (GCLA)
Time Latitude Longitude Altitude Speed Heading
2026-04-22 12:20 28.04387 -16.58188 198 ft 0 kts 340°
2026-04-22 12:45 28.04393 -16.58191 208 ft 1 kts 339°
2026-04-22 12:45 28.04413 -16.58201 206 ft 6 kts 334°
2026-04-22 12:46 28.04453 -16.58189 207 ft 7 kts 71°
2026-04-22 12:46 28.04437 -16.58139 201 ft 7 kts 147°
2026-04-22 12:46 28.04374 -16.58106 207 ft 12 kts 148°
2026-04-22 12:46 28.04388 -16.57976 199 ft 30 kts 69°
2026-04-22 12:47 28.04472 -16.57733 207 ft 31 kts 68°
2026-04-22 12:47 28.04539 -16.57543 208 ft 23 kts 68°
2026-04-22 12:47 28.04592 -16.57364 204 ft 27 kts 69°
2026-04-22 12:47 28.04669 -16.57150 211 ft 27 kts 63°
2026-04-22 12:48 28.04738 -16.56969 211 ft 27 kts 69°
2026-04-22 12:48 28.04822 -16.56727 208 ft 42 kts 69°
2026-04-22 12:48 28.04921 -16.56446 213 ft 34 kts 69°
2026-04-22 12:48 28.05013 -16.56178 216 ft 39 kts 69°
2026-04-22 12:49 28.05087 -16.55953 214 ft 17 kts 86°
2026-04-22 12:49 28.05052 -16.55857 215 ft 12 kts 155°
2026-04-22 12:49 28.04967 -16.55845 220 ft 11 kts 198°
2026-04-22 12:49 28.04921 -16.55900 216 ft 9 kts 248°
2026-04-22 12:50 28.04916 -16.55915 216 ft 0 kts 250°
2026-04-22 12:52 28.04916 -16.55916 216 ft 1 kts 250°
2026-04-22 12:52 28.04827 -16.56172 213 ft 66 kts 250°
2026-04-22 12:52 28.04592 -16.56837 214 ft 112 kts 246°
2026-04-22 12:52 28.04271 -16.57704 524 ft 121 kts 243°
2026-04-22 12:53 28.03937 -16.58572 1015 ft 119 kts 246°
2026-04-22 12:53 28.03596 -16.59495 1192 ft 136 kts 246°
2026-04-22 12:53 28.03158 -16.60585 1232 ft 164 kts 244°
2026-04-22 12:53 28.02705 -16.61819 1484 ft 174 kts 248°
2026-04-22 12:54 28.02265 -16.63098 1916 ft 174 kts 248°
2026-04-22 12:54 28.01821 -16.64374 2353 ft 174 kts 248°
2026-04-22 12:54 28.01379 -16.65648 2783 ft 173 kts 251°
2026-04-22 12:54 28.01469 -16.66977 3123 ft 177 kts 300°
2026-04-22 12:55 28.02210 -16.68094 3480 ft 178 kts 307°
2026-04-22 12:55 28.02997 -16.69185 3854 ft 179 kts 309°
2026-04-22 12:55 28.03797 -16.70246 4247 ft 179 kts 309°
2026-04-22 12:55 28.04621 -16.71316 4644 ft 181 kts 310°
2026-04-22 12:56 28.05458 -16.72388 4995 ft 182 kts 310°
2026-04-22 12:56 28.06313 -16.73467 5412 ft 183 kts 310°
2026-04-22 12:56 28.07177 -16.74543 5810 ft 185 kts 310°
2026-04-22 12:56 28.08033 -16.75606 6196 ft 186 kts 310°
2026-04-22 12:57 28.08916 -16.76692 6538 ft 188 kts 310°
2026-04-22 12:57 28.09808 -16.77781 6856 ft 189 kts 310°
2026-04-22 12:57 28.10711 -16.78867 7159 ft 190 kts 310°
2026-04-22 12:57 28.11624 -16.79953 7456 ft 191 kts 310°
2026-04-22 12:58 28.12550 -16.81042 7746 ft 192 kts 310°
2026-04-22 12:58 28.13486 -16.82133 8034 ft 193 kts 310°
2026-04-22 12:58 28.14432 -16.83224 8325 ft 195 kts 310°
2026-04-22 12:58 28.15389 -16.84317 8606 ft 196 kts 310°
2026-04-22 12:59 28.16355 -16.85410 8883 ft 197 kts 310°
2026-04-22 12:59 28.17332 -16.86505 9155 ft 198 kts 310°
2026-04-22 12:59 28.18303 -16.87583 9420 ft 199 kts 311°
2026-04-22 12:59 28.19300 -16.88684 9698 ft 200 kts 310°
2026-04-22 13:00 28.20313 -16.89794 9836 ft 208 kts 311°
2026-04-22 13:00 28.21382 -16.90964 9889 ft 218 kts 311°
2026-04-22 13:00 28.22495 -16.92188 9920 ft 228 kts 311°
2026-04-22 13:00 28.23654 -16.93468 9933 ft 236 kts 311°
2026-04-22 13:01 28.24829 -16.94776 9938 ft 243 kts 311°
2026-04-22 13:01 28.26045 -16.96134 9935 ft 248 kts 311°
2026-04-22 13:01 28.27284 -16.97525 9940 ft 251 kts 311°
2026-04-22 13:01 28.28533 -16.98929 9942 ft 254 kts 311°
2026-04-22 13:02 28.29795 -17.00352 9940 ft 257 kts 311°
2026-04-22 13:02 28.31068 -17.01788 9936 ft 258 kts 311°
2026-04-22 13:02 28.32347 -17.03230 9939 ft 259 kts 311°
2026-04-22 13:02 28.33616 -17.04663 9947 ft 260 kts 311°
2026-04-22 13:03 28.34905 -17.06117 9941 ft 262 kts 311°
2026-04-22 13:03 28.36206 -17.07586 9943 ft 263 kts 311°
2026-04-22 13:03 28.37502 -17.09053 9937 ft 263 kts 311°
2026-04-22 13:03 28.38799 -17.10521 9936 ft 263 kts 311°
2026-04-22 13:04 28.40094 -17.11988 9933 ft 263 kts 311°
2026-04-22 13:04 28.41375 -17.13437 9940 ft 263 kts 311°
2026-04-22 13:04 28.42673 -17.14909 9939 ft 263 kts 311°
2026-04-22 13:04 28.43971 -17.16380 9945 ft 264 kts 311°
2026-04-22 13:05 28.45274 -17.17859 9933 ft 264 kts 311°
2026-04-22 13:05 28.46579 -17.19337 9930 ft 264 kts 311°
2026-04-22 13:05 28.47881 -17.20812 9935 ft 264 kts 311°
2026-04-22 13:05 28.49165 -17.22266 9935 ft 264 kts 311°
2026-04-22 13:06 28.50466 -17.23740 9934 ft 264 kts 311°
2026-04-22 13:06 28.51766 -17.25213 9938 ft 263 kts 311°
2026-04-22 13:06 28.53064 -17.26685 9937 ft 263 kts 311°
2026-04-22 13:06 28.54364 -17.28157 9933 ft 263 kts 311°
2026-04-22 13:07 28.55664 -17.29630 9935 ft 263 kts 311°
2026-04-22 13:07 28.56963 -17.31101 9933 ft 263 kts 311°
2026-04-22 13:07 28.58263 -17.32573 9936 ft 263 kts 311°
2026-04-22 13:07 28.59562 -17.34046 9941 ft 263 kts 311°
2026-04-22 13:08 28.60860 -17.35519 9944 ft 263 kts 311°
2026-04-22 13:08 28.62157 -17.36994 9940 ft 263 kts 311°
2026-04-22 13:08 28.63439 -17.38449 9942 ft 264 kts 311°
2026-04-22 13:08 28.64738 -17.39925 9942 ft 264 kts 311°
2026-04-22 13:09 28.66036 -17.41401 9941 ft 264 kts 311°
2026-04-22 13:09 28.67336 -17.42880 9944 ft 263 kts 311°
2026-04-22 13:09 28.68634 -17.44354 9943 ft 264 kts 311°
2026-04-22 13:09 28.69933 -17.45832 9942 ft 264 kts 311°
2026-04-22 13:10 28.71232 -17.47310 9943 ft 264 kts 311°
2026-04-22 13:10 28.72511 -17.48764 9948 ft 264 kts 311°
2026-04-22 13:10 28.73824 -17.50261 9940 ft 264 kts 311°
2026-04-22 13:10 28.75106 -17.51723 9942 ft 264 kts 311°
2026-04-22 13:11 28.76404 -17.53202 9943 ft 264 kts 311°
2026-04-22 13:11 28.77699 -17.54679 9943 ft 263 kts 311°
2026-04-22 13:11 28.78992 -17.56159 9945 ft 263 kts 311°
2026-04-22 13:11 28.80288 -17.57640 9946 ft 264 kts 310°
2026-04-22 13:12 28.81695 -17.58959 9942 ft 266 kts 330°
2026-04-22 13:12 28.83526 -17.59344 9944 ft 274 kts
2026-04-22 13:12 28.85278 -17.58610 9952 ft 267 kts 36°
2026-04-22 13:12 28.86417 -17.57019 9953 ft 256 kts 69°
2026-04-22 13:13 28.86651 -17.55108 9950 ft 241 kts 103°
2026-04-22 13:13 28.85969 -17.53466 9957 ft 224 kts 139°
2026-04-22 13:13 28.84694 -17.52598 9947 ft 210 kts 163°
2026-04-22 13:13 28.83274 -17.52030 9548 ft 220 kts 171°
2026-04-22 13:14 28.81732 -17.51770 9170 ft 228 kts 177°
2026-04-22 13:14 28.80125 -17.51593 8864 ft 233 kts 178°
2026-04-22 13:14 28.78526 -17.51407 8619 ft 235 kts 176°
2026-04-22 13:14 28.77427 -17.51247 8449 ft 236 kts 175°
2026-04-22 13:15 28.75266 -17.50873 8116 ft 237 kts 174°
2026-04-22 13:15 28.73633 -17.50584 7872 ft 238 kts 174°
2026-04-22 13:15 28.71991 -17.50296 7626 ft 238 kts 174°
2026-04-22 13:15 28.70347 -17.50006 7383 ft 239 kts 174°
2026-04-22 13:16 28.68725 -17.49721 7141 ft 239 kts 174°
2026-04-22 13:16 28.67084 -17.49434 6902 ft 239 kts 174°
2026-04-22 13:16 28.65443 -17.49147 6666 ft 239 kts 173°
2026-04-22 13:16 28.64355 -17.48957 6505 ft 239 kts 173°
2026-04-22 13:17 28.62714 -17.48667 6256 ft 239 kts 173°
2026-04-22 13:17 28.61073 -17.48381 5997 ft 238 kts 173°
2026-04-22 13:17 28.59428 -17.48093 5741 ft 238 kts 173°
2026-04-22 13:17 28.57788 -17.47807 5489 ft 238 kts 173°
2026-04-22 13:18 28.56146 -17.47519 5238 ft 238 kts 173°
2026-04-22 13:18 28.54505 -17.47232 4982 ft 238 kts 173°
2026-04-22 13:18 28.52867 -17.46945 4751 ft 237 kts 173°
2026-04-22 13:18 28.51267 -17.46667 4641 ft 232 kts 173°
2026-04-22 13:19 28.49696 -17.46390 4584 ft 225 kts 173°
2026-04-22 13:19 28.48166 -17.46121 4561 ft 219 kts 173°
2026-04-22 13:19 28.46677 -17.45862 4550 ft 214 kts 173°
2026-04-22 13:19 28.45217 -17.45609 4543 ft 210 kts 173°
2026-04-22 13:20 28.43779 -17.45361 4540 ft 207 kts 173°
2026-04-22 13:20 28.42372 -17.45091 4531 ft 202 kts 165°
2026-04-22 13:20 28.41284 -17.44157 4539 ft 203 kts 123°
2026-04-22 13:20 28.40700 -17.42700 4537 ft 201 kts 113°
2026-04-22 13:21 28.40219 -17.41204 4537 ft 201 kts 111°
2026-04-22 13:21 28.39812 -17.39685 4529 ft 200 kts 99°
2026-04-22 13:21 28.40113 -17.38186 4537 ft 203 kts 56°
2026-04-22 13:21 28.41239 -17.37272 4543 ft 201 kts 14°
2026-04-22 13:22 28.42608 -17.36975 4537 ft 201 kts
2026-04-22 13:22 28.43997 -17.36775 4540 ft 202 kts
2026-04-22 13:22 28.45399 -17.36633 4535 ft 202 kts
2026-04-22 13:22 28.46810 -17.36536 4536 ft 203 kts
2026-04-22 13:23 28.48223 -17.36513 4532 ft 201 kts 352°
2026-04-22 13:23 28.49432 -17.37182 4541 ft 194 kts 309°
2026-04-22 13:23 28.50209 -17.38416 4540 ft 192 kts 300°
2026-04-22 13:23 28.50895 -17.39723 4539 ft 193 kts 296°
2026-04-22 13:24 28.51507 -17.41083 4543 ft 193 kts 292°
2026-04-22 13:24 28.51837 -17.42509 4535 ft 188 kts 262°
2026-04-22 13:24 28.51245 -17.43776 4545 ft 186 kts 217°
2026-04-22 13:24 28.50047 -17.44275 4539 ft 181 kts 195°
2026-04-22 13:25 28.49063 -17.45092 4542 ft 183 kts 237°
2026-04-22 13:25 28.48536 -17.46480 4540 ft 202 kts 255°
2026-04-22 13:25 28.48285 -17.48130 4505 ft 221 kts 261°
2026-04-22 13:25 28.48090 -17.49919 4432 ft 234 kts 263°
2026-04-22 13:26 28.48199 -17.51779 4357 ft 241 kts 283°
2026-04-22 13:26 28.48638 -17.53664 4281 ft 250 kts 284°
2026-04-22 13:26 28.49112 -17.55565 4206 ft 255 kts 285°
2026-04-22 13:26 28.49613 -17.57517 4130 ft 259 kts 285°
2026-04-22 13:27 28.50125 -17.59492 4072 ft 261 kts 285°
2026-04-22 13:27 28.50635 -17.61439 4019 ft 253 kts 286°
2026-04-22 13:27 28.51133 -17.63332 3920 ft 247 kts 285°
2026-04-22 13:27 28.51696 -17.65157 3821 ft 243 kts 292°
2026-04-22 13:28 28.52373 -17.66910 3710 ft 241 kts 294°
2026-04-22 13:28 28.53070 -17.68603 3612 ft 225 kts 295°
2026-04-22 13:28 28.53735 -17.70101 3369 ft 203 kts 296°
2026-04-22 13:28 28.54364 -17.71501 2977 ft 195 kts 296°
2026-04-22 13:29 28.54970 -17.72852 2613 ft 188 kts 296°
2026-04-22 13:29 28.55691 -17.73996 2227 ft 176 kts 324°
2026-04-22 13:29 28.56775 -17.74556 1919 ft 166 kts 338°
2026-04-22 13:29 28.57779 -17.75005 1907 ft 144 kts 339°
2026-04-22 13:30 28.58716 -17.75333 1430 ft 144 kts 349°
2026-04-22 13:30 28.59724 -17.75498 894 ft 143 kts 355°
2026-04-22 13:30 28.60678 -17.75533 484 ft 132 kts
2026-04-22 13:30 28.61568 -17.75543 162 ft 124 kts
2026-04-22 13:31 28.62376 -17.75555 99 ft 102 kts 358°
2026-04-22 13:31 28.62605 -17.75553 95 ft 1 kts
2026-04-22 13:31 28.62638 -17.75518 93 ft 4 kts 108°
2026-04-22 13:31 28.62539 -17.75449 95 ft 19 kts 176°
2026-04-22 13:32 28.62422 -17.75445 100 ft 17 kts 177°
2026-04-22 13:32 28.62257 -17.75435 100 ft 17 kts 152°
2026-04-22 13:32 28.62247 -17.75357 100 ft 0 kts 89°